星链-32171 (STARLINK-32171)

导读 | 星芒AI

STARLINK-32171 是 SpaceX Starlink 卫星互联网项目中的一颗低轨卫星,属于第二代 Starlink 卫星(v1.5 或 v2)。它于 2023 年发射,旨在为全球提供高速、低延迟的宽带互联网服务。该卫星采用先进通信技术,具备更高的带宽和更强的信号覆盖能力,支持农村和偏远地区网络接入。其运行轨道高度约 550 公里,设计寿命较长,并具备自主变轨和防撞能力,以确保太空安全。

基本信息
目录编号:
60332
目录名称:
STARLINK-32171
国际标识:
2024-136D
轨道中心:
EARTH
卫星名称:
星链-32171 (STARLINK-32171)
卫星全名:
星链-32171 (STARLINK-32171)
卫星状态:
在轨 (已飞行505 天)
发射日期:
2024-08-02 UTC
国别 :
美国 (US)
星等 :
--
轨道信息
数据来源 国际轨道数据 AOE轨道数据
星历时间 2025-12-19T20:30:16+0800
20小时前
查看轨道信息
2025-12-13T18:00:00+0800
6天前
查看轨道信息
半长轴 6853.398km 6853.316km
偏心率 0.0001431 0.0001491
轨道倾角 53.160° 53.157°
近地点辐角 67.430° 56.287°
升交点赤经 87.825° 116.177°
平近点角 292.686° 137.948°
近地点 474.28km 474.159km
远地点 476.242km 476.203km
周期 94.106分钟 94.105分钟
每日圈数 15.301849 15.302122
详细信息
卫星平台:
Starlink v2.0 mini
运营商:
太空探索技术公司
运营商所在国:
美国
制造商(研发单位):
太空探索技术公司
制造商所在国:
美国
使用方式:
暂无
卫星简介
星链(Starlink)计划是由太空探索技术公司(SpaceX)提出的一个巨型低轨卫星互联网星座项目,计划在2019年至2024年间在太空搭建由约1.2万颗卫星组成的“星链”网络,其中1584颗将部署在地球上空550千米处的近地轨道,并从2020年开始工作。该卫星仍在工作。
2D轨道图
3D轨道图
轨道高度分析图
轨道倾角分析图
轨道综合分析图
查看轨道综合分析图